Regional Weather Roundup
Issued by NWS

Home | Current Version | Previous Version | Graphics & Text | Print | Product List | Glossary On
Versions: 1 2 3 4 5 6 7 8 9 10 11 12 13 14 15 16 17 18 19 20 21 22 23 24 25 26 27 28
000
ASUS45 KPSR 250810
RWRAZ

ARIZONA HOURLY REGIONAL WEATHER ROUNDUP
NATIONAL WEATHER SERVICE PHOENIX AZ
100 AM MST SAT FEB 25 2017

NOTE: FAIR INDICATES FEW OR NO CLOUDS BELOW 12,000 FEET WITH NO
SIGNIFICANT WEATHER AND/OR OBSTRUCTIONS TO VISIBILITY.

AZZ001>003-036-250900-
NORTHWEST ARIZONA

CITY           SKY/WX    TMP DP  RH WIND       PRES   REMARKS
BULLHEAD CITY  CLEAR     46  25  42 NE5       30.14S
KINGMAN        CLEAR     29   7  39 SE5       30.12F WCI  24
$$

AZZ004>008-015-016-018-250900-
NORTH CENTRAL ARIZONA

CITY           SKY/WX    TMP DP  RH WIND       PRES   REMARKS
GRAND CANYON   CLEAR     16  12  84 CALM      30.09F
WILLIAMS       CLEAR     18  12  79 S8        30.09F WCI   7
PRESCOTT       CLEAR     28  15  58 S3        30.11F
FLAGSTAFF      CLEAR     22  12  65 CALM      30.08F
PAYSON         CLEAR     28  19  69 CALM      30.15R
PAGE           CLEAR     34   2  25 W5        30.11S WCI  30
$$

AZZ009>014-017-250900-
NORTHEAST ARIZONA

CITY           SKY/WX    TMP DP  RH WIND       PRES   REMARKS
WINSLOW        CLEAR     24  14  65 SW7       30.12S WCI  16
SAINT JOHNS    CLEAR     26  14  60 W3        30.09S
WINDOW ROCK    CLEAR     19   8  62 CALM      30.08R
SHOW LOW       LGT RAIN  25  14  63 S12       30.10F WCI  14
$$

AZZ023-250900-
GREATER PHOENIX AREA

CITY           SKY/WX    TMP DP  RH WIND       PRES   REMARKS
PHOENIX        CLEAR     48  32  53 E6        30.11S
BUCKEYE        CLEAR     39  39 100 N7        30.13S WCI  34
LUKE AFB       CLEAR     44  32  63 NW10      30.11F
DEER VALLEY    CLEAR     44  30  57 N3        30.11S
SCOTTSDALE     CLEAR     44  31  60 CALM      30.12F
MESA-GATEWAY   CLEAR     39  32  75 SE7       30.13F WCI  34
$$

AZZ027-028-250900-
SOUTHWEST MARICOPA COUNTY AND PINAL COUNTY

CITY           SKY/WX    TMP DP  RH WIND       PRES   REMARKS
CASA GRANDE    NOT AVBL
$$

AZZ503-504-507>509-250900-
SOUTHEAST ARIZONA

CITY           SKY/WX    TMP DP  RH WIND       PRES   REMARKS
TUCSON         CLEAR     41  21  44 SE7       30.15S
DAVIS-MONTHAN  CLEAR     38  20  48 SE6       30.13F WCI  34
NOGALES        CLEAR     35  16  45 CALM      30.14S
SIERRA VISTA   CLEAR     38  15  38 S6        30.15F WCI  33
DOUGLAS        CLEAR     31  14  49 E5        30.14F WCI  26
SAFFORD        CLEAR     35  14  42 N3        30.12S
$$

AZZ020-021-025-026-031-250900-
SOUTHWEST ARIZONA

CITY           SKY/WX    TMP DP  RH WIND       PRES   REMARKS
YUMA           CLEAR     52  27  38 CALM      30.13S
$$

CAZ031-033-041-043-047-048-061-250900-
SOUTHERN CALIFORNIA

CITY           SKY/WX    TMP DP  RH WIND       PRES   REMARKS
DOWNTOWN L.A.  CLEAR     50  40  68 CALM      30.17S
L.A. AIRPORT   CLEAR     49  41  74 NE5       30.18R
SAN DIEGO      CLEAR     51  35  54 CALM      30.20S
BURBANK        CLEAR     44  31  60 CALM      30.16S
ONTARIO        CLEAR     46  35  65 CALM      30.17R
RIVERSIDE      CLEAR     44  35  70 CALM      30.18R
PALM SPRINGS   CLEAR     50  36  58 N8        30.16R
EL CENTRO NAS  CLEAR     49  27  42 CALM      30.15F
IMPERIAL       CLEAR     46  33  60 W5        30.13S
BLYTHE         CLEAR     47  38  71 N7        30.14R
NEEDLES        CLEAR     48  26  42 SE6       30.13S
$$

NVZ020-UTZ003-250900-
SOUTHERN NEVADA-UTAH

CITY           SKY/WX    TMP DP  RH WIND       PRES   REMARKS
LAS VEGAS      CLEAR     43  19  38 W5        30.11S
SALT LAKE CITY PTCLDY    23  13  65 SE9       30.13S WCI  13
$$

NMZ009-TXZ055-250900-
NEW MEXICO-WEST TEXAS

CITY           SKY/WX    TMP DP  RH WIND       PRES   REMARKS
ALBUQUERQUE    CLEAR     32  -2  23 N3        30.10R
EL PASO        CLEAR     51   6  16 N8        30.08S
$$


........................KEY........................
SKY/WX - SKY CONDITION/WEATHER
TMP    - TEMPERATURE IN FAHRENHEIT
DP     - DEW POINT IN FAHRENHEIT
RH     - RELATIVE HUMIDITY IN PERCENT
WIND   - DIRECTION AND SPEED IN MILES PER HOUR (MPH)
VRB    - VARIABLE WIND DIRECTION
PRES   - MEAN SEA LEVEL PRESSURE IN INCHES OF MERCURY
         F - FALLING PRESSURE   R - RISING PRESSURE
         S - STEADY PRESSURE
VSB    - VISIBILITY IN MILES
HX     - HEAT INDEX IN FAHRENHEIT
WCI    - WIND CHILL INDEX IN FAHRENHEIT
TC     - TEMPERATURE IN CELSIUS WHICH IS ALSO KNOWN AS
         TEMPERATURE IN CENTIGRADE
AFB    - AIR FORCE BASE
         LUKE AFB IS LUKE AIR FORCE BASE
         DAVIS-MONTHAN IS DAVIS-MONTHAN AIR FORCE BASE
NAS    - NAVAL AIR STATION
         EL CENTRO NAS IS EL CENTRO NAVAL AIR STATION
N/A    - NOT AVAILABLE





USA.gov is the U.S. government's official web portal to all federal, state and local government web resources and services.